,,PA_Meas_PMT16A,,PR_Meas_QMR101_102,,RH_Meas_QMH101,,SR_Meas_QMS101,,TA_Meas_QMH101,,GenWind,,GenWind,
time,status,PA,status,PR,status,RH,status,SR,status,TA,status,DirAvg,status,SpdAvg,
2013-01-28, 07:43:04,VALID,919.604,VALID,0,VALID,97.0613,VALID,189.956,VALID,20.6405,VALID,163,VALID,0.738672,
2013-01-28, 07:44:04,VALID,919.601,VALID,0,VALID,97.0232,VALID,182.757,VALID,20.621,VALID,165,VALID,1.09961,
2013-01-28, 07:49:04,VALID,919.433,VALID,0,VALID,96.7335,VALID,211.552,VALID,20.8746,VALID,149,VALID,0.867969,
2013-01-28, 07:50:04,VALID,919.559,VALID,0,VALID,96.6268,VALID,212.196,VALID,20.8746,VALID,172,VALID,1.13828,
2013-01-28, 07:51:04,VALID,919.672,VALID,0,VALID,96.4667,VALID,216.924,VALID,20.873,VALID,164,VALID,0.873828,
2013-01-28, 07:52:04,VALID,919.684,VALID,0,VALID,96.3676,VALID,227.238,VALID,20.9917,VALID,159,VALID,0.709375,
2013-01-28, 07:53:04,VALID,919.666,VALID,0,VALID,96.1694,VALID,232.503,VALID,20.9511,VALID,154,VALID,1.14219,
2013-01-28, 07:54:04,VALID,919.658,VALID,0,VALID,95.9864,VALID,236.8,VALID,21.0291,VALID,163,VALID,0.688281,
2013-01-28, 07:55:04,VALID,919.728,VALID,0,VALID,95.651,VALID,246.685,VALID,21.0502,VALID,161,VALID,0.807813,
2013-01-28, 07:56:04,VALID,919.699,VALID,0,VALID,95.2546,VALID,219.287,VALID,21.0291,VALID,163,VALID,0.966797,
2013-01-28, 07:57:04,VALID,919.757,VALID,0,VALID,95.1783,VALID,247.974,VALID,21.0681,VALID,120,VALID,0.846484,
2013-01-28, 07:58:04,VALID,919.605,VALID,0,VALID,95.2165,VALID,250.983,VALID,21.1868,VALID,165,VALID,0.777344,
2013-01-28, 07:59:04,VALID,919.764,VALID,0,VALID,94.9192,VALID,256.14,VALID,21.2242,VALID,166,VALID,0.819531,
2013-01-28, 08:00:04,VALID,919.638,VALID,0,VALID,94.8963,VALID,267.636,VALID,21.3022,VALID,165,VALID,0.351172,
2013-01-28, 08:01:04,VALID,919.805,VALID,0,VALID,95.1021,VALID,247.759,VALID,21.4973,VALID,21,VALID,0.499219,
2013-01-28, 08:02:04,VALID,919.678,VALID,0,VALID,94.477,VALID,165.352,VALID,21.538,VALID,147,VALID,0.222656,
2013-01-28, 08:03:04,VALID,919.634,VALID,0,VALID,94.0958,VALID,164.6,VALID,21.5363,VALID,94,VALID,0.978125,
2013-01-28, 08:04:04,VALID,919.751,VALID,0,VALID,93.7985,VALID,162.773,VALID,21.5559,VALID,93,VALID,0.678906,
2013-01-28, 08:07:04,VALID,919.808,VALID,0,VALID,93.242,VALID,273.653,VALID,21.4209,VALID,87,VALID,0.441016,
2013-01-28, 08:08:04,VALID,919.795,VALID,0,VALID,93.2115,VALID,287.942,VALID,21.4404,VALID,124,VALID,0.969531,
2013-01-28, 08:09:04,VALID,919.838,VALID,0,VALID,93.2877,VALID,292.455,VALID,21.5168,VALID,125,VALID,1.21445,
2013-01-28, 08:10:04,VALID,919.76,VALID,0,VALID,93.0972,VALID,295.248,VALID,21.5754,VALID,141,VALID,0.496484,
2013-01-28, 08:11:04,VALID,919.889,VALID,0,VALID,92.8303,VALID,299.438,VALID,21.6356,VALID,217,VALID,0.141797,
2013-01-28, 08:12:04,VALID,919.914,VALID,0,VALID,91.9231,VALID,300.943,VALID,21.616,VALID,157,VALID,0.635938,
2013-01-28, 08:13:04,VALID,919.982,VALID,0,VALID,91.7554,VALID,305.133,VALID,21.6144,VALID,157,VALID,0.751953,
2013-01-28, 08:14:04,VALID,919.943,VALID,0,VALID,91.5115,VALID,308.786,VALID,21.6729,VALID,157,VALID,0.627344,
2013-01-28, 08:15:04,VALID,919.955,VALID,0,VALID,91.5039,VALID,319.96,VALID,21.751,VALID,186,VALID,0.520312,
2013-01-28, 08:16:04,VALID,919.914,VALID,0,VALID,91.6563,VALID,323.183,VALID,21.8485,VALID,171,VALID,0.363672,
2013-01-28, 08:17:04,VALID,919.944,VALID,0,VALID,91.3895,VALID,298.042,VALID,21.8681,VALID,141,VALID,0.372266,
2013-01-28, 08:18:04,VALID,919.962,VALID,0,VALID,90.8559,VALID,306.422,VALID,21.9266,VALID,189,VALID,1.45977,
2013-01-28, 08:19:04,VALID,919.918,VALID,0,VALID,90.5662,VALID,328.448,VALID,21.9851,VALID,172,VALID,1.02383,
2013-01-28, 08:20:04,VALID,919.981,VALID,0,VALID,91.0236,VALID,334.464,VALID,22.0632,VALID,172,VALID,0.407031,
2013-01-28, 08:21:04,VALID,919.937,VALID,0,VALID,90.6348,VALID,337.795,VALID,22.1803,VALID,157,VALID,0.601953,
2013-01-28, 08:22:04,VALID,919.967,VALID,0,VALID,90.3299,VALID,342.2,VALID,22.2796,VALID,172,VALID,0.660937,
2013-01-28, 08:23:04,VALID,919.992,VALID,0,VALID,90.3299,VALID,346.498,VALID,22.3771,VALID,170,VALID,0.0882813,
2013-01-28, 08:24:04,VALID,920.036,VALID,0,VALID,90.3299,VALID,350.366,VALID,22.5333,VALID,170,VALID,0.566797,
2013-01-28, 08:25:04,VALID,919.955,VALID,0,VALID,88.8357,VALID,355.093,VALID,22.6114,VALID,178,VALID,1.09102,
2013-01-28, 08:26:04,VALID,919.657,VALID,0,VALID,86.7468,VALID,363.796,VALID,22.5511,VALID,113,VALID,1.25781,
2013-01-28, 08:27:04,VALID,920.015,VALID,0,VALID,86.6554,VALID,375.399,VALID,22.4942,VALID,101,VALID,0.839844,
2013-01-28, 08:28:04,VALID,919.904,VALID,0,VALID,88.2029,VALID,386.251,VALID,22.5528,VALID,84,VALID,0.959766,
2013-01-28, 08:29:04,VALID,919.937,VALID,0,VALID,89.6819,VALID,237.015,VALID,22.6487,VALID,97,VALID,0.552344,
2013-01-28, 08:33:04,VALID,919.964,VALID,0,VALID,87.0213,VALID,325.009,VALID,22.1981,VALID,172,VALID,1.21953,
2013-01-28, 08:34:04,VALID,919.891,VALID,0,VALID,88.1648,VALID,386.681,VALID,22.1998,VALID,181,VALID,0.736719,
2013-01-28, 08:35:04,VALID,919.878,VALID,0,VALID,88.8814,VALID,386.788,VALID,22.2779,VALID,158,VALID,0.639844,
2013-01-28, 08:36:04,VALID,919.894,VALID,0,VALID,87.7226,VALID,398.929,VALID,22.2974,VALID,172,VALID,1.31055,
2013-01-28, 08:37:04,VALID,919.949,VALID,0,VALID,88.4774,VALID,406.45,VALID,22.3559,VALID,149,VALID,1.1832,
2013-01-28, 08:38:04,VALID,919.889,VALID,0,VALID,88.6375,VALID,303.844,VALID,22.4713,VALID,194,VALID,0.498828,
2013-01-28, 08:39:04,VALID,919.942,VALID,0,VALID,88.5917,VALID,408.599,VALID,22.6079,VALID,148,VALID,0.716797,
2013-01-28, 08:40:04,VALID,919.903,VALID,0,VALID,88.0733,VALID,391.086,VALID,22.7675,VALID,159,VALID,0.965625,
2013-01-28, 08:41:04,VALID,920.021,VALID,0,VALID,85.7253,VALID,327.266,VALID,22.7445,VALID,155,VALID,1.31836,
2013-01-28, 08:42:04,VALID,919.931,VALID,0,VALID,86.1827,VALID,394.954,VALID,22.7641,VALID,170,VALID,1.11719,
2013-01-28, 08:43:04,VALID,919.904,VALID,0,VALID,86.0074,VALID,390.334,VALID,22.8031,VALID,148,VALID,0.919922,
2013-01-28, 08:44:04,VALID,919.984,VALID,0,VALID,85.3365,VALID,392.268,VALID,22.7836,VALID,173,VALID,1.48555,
2013-01-28, 08:45:04,VALID,919.917,VALID,0,VALID,85.9845,VALID,394.094,VALID,22.7445,VALID,171,VALID,1.36641,
2013-01-28, 08:46:04,VALID,919.972,VALID,0,VALID,84.5361,VALID,405.268,VALID,22.647,VALID,134,VALID,1.28437,
2013-01-28, 08:47:04,VALID,919.885,VALID,0,VALID,85.55,VALID,412.789,VALID,22.6079,VALID,160,VALID,0.611328,
2013-01-28, 08:48:04,VALID,919.973,VALID,0,VALID,86.3276,VALID,415.045,VALID,22.6665,VALID,146,VALID,1.08164,
2013-01-28, 08:49:04,VALID,919.928,VALID,0,VALID,85.9007,VALID,410.425,VALID,22.7072,VALID,192,VALID,1.0625,
2013-01-28, 08:50:04,VALID,920.004,VALID,0,VALID,85.5347,VALID,404.946,VALID,22.7836,VALID,168,VALID,0.971484,
2013-01-28, 08:51:04,VALID,920.067,VALID,0,VALID,83.9338,VALID,410.103,VALID,22.8616,VALID,186,VALID,1.56133,
2013-01-28, 08:52:04,VALID,919.846,VALID,0,VALID,84.4446,VALID,413.756,VALID,22.9397,VALID,175,VALID,1.29688,
2013-01-28, 08:53:04,VALID,919.962,VALID,0,VALID,83.4154,VALID,411.392,VALID,22.9983,VALID,180,VALID,1.12188,
2013-01-28, 08:54:04,VALID,919.962,VALID,0,VALID,81.3037,VALID,419.45,VALID,23.0178,VALID,168,VALID,1.69219,
2013-01-28, 08:55:04,VALID,919.992,VALID,0,VALID,82.6531,VALID,421.277,VALID,23.0178,VALID,179,VALID,0.889453,
2013-01-28, 08:56:04,VALID,920.06,VALID,0,VALID,81.7916,VALID,426.326,VALID,22.9983,VALID,167,VALID,1.44883,
2013-01-28, 08:57:04,VALID,919.873,VALID,0,VALID,82.1194,VALID,431.699,VALID,23.0178,VALID,148,VALID,1.77578,
2013-01-28, 08:58:04,VALID,919.99,VALID,0,VALID,83.9643,VALID,290.521,VALID,23.0763,VALID,202,VALID,0.524609,
2013-01-28, 08:59:04,VALID,919.975,VALID,0,VALID,81.4714,VALID,463.501,VALID,23.1722,VALID,154,VALID,0.990234,
2013-01-28, 09:00:04,VALID,919.865,VALID,0,VALID,80.5566,VALID,469.518,VALID,23.1917,VALID,156,VALID,1.63945,
2013-01-28, 09:01:04,VALID,920.01,VALID,0,VALID,81.6392,VALID,292.025,VALID,23.1527,VALID,187,VALID,0.366406,
2013-01-28, 09:02:04,VALID,919.965,VALID,0,VALID,81.9365,VALID,519.156,VALID,23.2715,VALID,105,VALID,0.594531,
2013-01-28, 09:03:04,VALID,919.987,VALID,0,VALID,82.8818,VALID,534.412,VALID,23.3496,VALID,210,VALID,1.36992,
2013-01-28, 09:04:04,VALID,920.02,VALID,0,VALID,82.9809,VALID,543.437,VALID,23.4472,VALID,261,VALID,1.38125,
2013-01-28, 09:05:04,VALID,919.983,VALID,0,VALID,84.1701,VALID,555.578,VALID,23.4863,VALID,232,VALID,0.867188,
2013-01-28, 09:06:04,VALID,919.956,VALID,0,VALID,84.9325,VALID,223.155,VALID,23.6211,VALID,184,VALID,0.420312,
2013-01-28, 09:07:04,VALID,920.046,VALID,0,VALID,81.1589,VALID,363.903,VALID,23.662,VALID,237,VALID,1.71797,
2013-01-28, 09:08:04,VALID,919.97,VALID,0,VALID,82.8513,VALID,425.467,VALID,23.5839,VALID,230,VALID,1.09961,
2013-01-28, 09:09:04,VALID,920.044,VALID,0,VALID,82.3939,VALID,381.953,VALID,23.504,VALID,229,VALID,1.53867,
2013-01-28, 09:10:04,VALID,919.979,VALID,0,VALID,82.0966,VALID,292.67,VALID,23.4259,VALID,223,VALID,0.964844,
2013-01-28, 09:11:04,VALID,919.988,VALID,0,VALID,81.0826,VALID,250.768,VALID,23.3496,VALID,247,VALID,0.976172,
2013-01-28, 09:12:04,VALID,919.979,VALID,0,VALID,81.9288,VALID,398.499,VALID,23.2112,VALID,247,VALID,0.922266,
2013-01-28, 09:13:04,VALID,919.987,VALID,0,VALID,84.2006,VALID,625.093,VALID,23.2307,VALID,247,VALID,0.512891,
2013-01-28, 09:14:04,VALID,919.939,VALID,0,VALID,83.2096,VALID,644.862,VALID,23.3869,VALID,248,VALID,0.488672,
2013-01-28, 09:15:04,VALID,919.881,VALID,0,VALID,82.4701,VALID,639.167,VALID,23.5821,VALID,186,VALID,0.588672,
2013-01-28, 09:16:04,VALID,919.851,VALID,0,VALID,80.854,VALID,312.009,VALID,23.7187,VALID,212,VALID,0.816797,
2013-01-28, 09:17:04,VALID,919.81,VALID,0,VALID,80.4804,VALID,602.852,VALID,23.6992,VALID,255,VALID,1.32148,
2013-01-28, 09:18:04,VALID,919.9,VALID,0,VALID,79.0929,VALID,577.281,VALID,23.6424,VALID,184,VALID,1.04648,
2013-01-28, 09:19:04,VALID,919.966,VALID,0,VALID,79.9849,VALID,574.273,VALID,23.8004,VALID,166,VALID,0.239844,
2013-01-28, 09:20:04,VALID,919.901,VALID,0,VALID,79.5275,VALID,583.835,VALID,24.0134,VALID,192,VALID,1.54258,
2013-01-28, 09:21:04,VALID,919.865,VALID,0,VALID,78.7575,VALID,608.762,VALID,24.1696,VALID,193,VALID,2.18945,
2013-01-28, 09:22:04,VALID,919.911,VALID,0,VALID,77.9647,VALID,499.924,VALID,24.1891,VALID,185,VALID,2.43477,
2013-01-28, 09:23:04,VALID,919.973,VALID,0,VALID,79.5961,VALID,319.315,VALID,24.2281,VALID,180,VALID,1.44687,
2013-01-28, 09:24:04,VALID,919.921,VALID,0,VALID,77.8122,VALID,244.214,VALID,24.0719,VALID,188,VALID,1.81094,
2013-01-28, 09:25:04,VALID,919.979,VALID,0,VALID,80.0916,VALID,226.593,VALID,23.9743,VALID,205,VALID,0.930469,
2013-01-28, 09:26:04,VALID,919.993,VALID,0,VALID,79.4284,VALID,212.304,VALID,23.9158,VALID,231,VALID,0.825781,
2013-01-28, 09:27:04,VALID,919.991,VALID,0,VALID,80.7701,VALID,205.535,VALID,23.9176,VALID,200,VALID,0.787109,
2013-01-28, 09:28:04,VALID,919.933,VALID,0,VALID,78.8795,VALID,243.032,VALID,23.7986,VALID,229,VALID,1.07187,
2013-01-28, 09:29:04,VALID,919.934,VALID,0,VALID,80.0764,VALID,227.883,VALID,23.7809,VALID,205,VALID,0.65,
2013-01-28, 09:30:04,VALID,919.944,VALID,0,VALID,78.9938,VALID,290.951,VALID,23.7596,VALID,223,VALID,1.0957,
2013-01-28, 09:31:04,VALID,919.937,VALID,0,VALID,79.9925,VALID,346.175,VALID,23.8181,VALID,221,VALID,0.646875,
2013-01-28, 09:32:04,VALID,919.923,VALID,0,VALID,78.6355,VALID,171.369,VALID,23.8962,VALID,235,VALID,0.803516,
2013-01-28, 09:33:04,VALID,919.927,VALID,0,VALID,81.8145,VALID,154.93,VALID,23.9353,VALID,199,VALID,0.9625,
2013-01-28, 09:34:04,VALID,919.967,VALID,0,VALID,80.9912,VALID,151.492,VALID,23.8377,VALID,259,VALID,0.882813,
2013-01-28, 09:35:04,VALID,919.99,VALID,0,VALID,81.3723,VALID,163.203,VALID,23.6424,VALID,259,VALID,0.454688,
2013-01-28, 09:36:04,VALID,919.986,VALID,0,VALID,82.6683,VALID,186.088,VALID,23.6052,VALID,259,VALID,0.0046875,
2013-01-28, 09:37:04,VALID,919.992,VALID,0,VALID,82.0889,VALID,180.394,VALID,23.6442,VALID,310,VALID,0.799609,
2013-01-28, 09:38:04,VALID,919.958,VALID,0,VALID,83.08,VALID,145.368,VALID,23.7223,VALID,347,VALID,0.7625,
2013-01-28, 09:39:04,VALID,919.989,VALID,0,VALID,82.0889,VALID,132.905,VALID,23.701,VALID,2,VALID,0.810547,
2013-01-28, 09:40:04,VALID,919.98,VALID,0,VALID,83.2934,VALID,130.541,VALID,23.662,VALID,9,VALID,0.615234,
2013-01-28, 09:41:04,VALID,919.963,VALID,0,VALID,82.2109,VALID,129.467,VALID,23.6052,VALID,9,VALID,0.569922,
2013-01-28, 09:42:04,VALID,919.966,VALID,0,VALID,83.0266,VALID,143.004,VALID,23.5857,VALID,9,VALID,0.636328,
2013-01-28, 09:43:04,VALID,919.983,VALID,0,VALID,84.2006,VALID,160.839,VALID,23.6052,VALID,9,VALID,0.799219,
2013-01-28, 09:44:04,VALID,919.975,VALID,0,VALID,83.1181,VALID,164.063,VALID,23.6247,VALID,9,VALID,0.481641,
2013-01-28, 09:45:04,VALID,919.956,VALID,0,VALID,82.1652,VALID,150.525,VALID,23.5857,VALID,9,VALID,0.489844,
2013-01-28, 09:46:04,VALID,919.96,VALID,0,VALID,82.8437,VALID,140.533,VALID,23.5253,VALID,347,VALID,1.075,
2013-01-28, 09:47:04,VALID,919.941,VALID,0,VALID,83.9948,VALID,142.145,VALID,23.5271,VALID,351,VALID,0.309375,
2013-01-28, 09:48:04,VALID,919.946,VALID,0,VALID,83.8728,VALID,147.194,VALID,23.5058,VALID,351,VALID,0.301172,
2013-01-28, 09:49:04,VALID,919.953,VALID,0,VALID,84.3226,VALID,157.616,VALID,23.5058,VALID,351,VALID,0.758984,
2013-01-28, 09:50:04,VALID,919.952,VALID,0,VALID,82.3481,VALID,167.823,VALID,23.4472,VALID,347,VALID,0.483203,
2013-01-28, 09:51:04,VALID,919.942,VALID,0,VALID,82.7827,VALID,179.427,VALID,23.3674,VALID,346,VALID,0.0125,
2013-01-28, 09:52:04,VALID,919.924,VALID,0,VALID,83.9719,VALID,195.328,VALID,23.4082,VALID,5,VALID,0.195703,
2013-01-28, 09:53:04,VALID,919.961,VALID,0,VALID,82.9885,VALID,198.444,VALID,23.4277,VALID,5,VALID,0.194922,
2013-01-28, 09:54:04,VALID,919.908,VALID,0,VALID,82.2643,VALID,175.559,VALID,23.4277,VALID,5,VALID,0.337109,
2013-01-28, 09:55:04,VALID,919.911,VALID,0,VALID,80.9454,VALID,188.989,VALID,23.4277,VALID,5,VALID,0.325,
2013-01-28, 09:56:04,VALID,919.915,VALID,0,VALID,81.6239,VALID,211.767,VALID,23.4259,VALID,5,VALID,0.321484,
2013-01-28, 09:57:04,VALID,919.917,VALID,0,VALID,81.38,VALID,213.915,VALID,23.4454,VALID,5,VALID,0.0582031,
2013-01-28, 09:58:04,VALID,919.888,VALID,0,VALID,83.0342,VALID,213.378,VALID,23.5626,VALID,5,VALID,0.496094,
2013-01-28, 09:59:04,VALID,919.891,VALID,0,VALID,82.7217,VALID,595.976,VALID,23.7205,VALID,5,VALID,0.407422,
2013-01-28, 10:00:04,VALID,919.868,VALID,0,VALID,79.7333,VALID,208.006,VALID,23.8181,VALID,117,VALID,1.3043,
2013-01-28, 10:01:04,VALID,919.9,VALID,0,VALID,78.0485,VALID,202.312,VALID,23.9158,VALID,70,VALID,0.802344,
2013-01-28, 10:02:04,VALID,919.885,VALID,0,VALID,79.5656,VALID,222.726,VALID,23.9335,VALID,170,VALID,0.789453,
2013-01-28, 10:03:04,VALID,919.836,VALID,0,VALID,77.1413,VALID,248.404,VALID,23.9548,VALID,139,VALID,0.598437,
2013-01-28, 10:04:04,VALID,919.875,VALID,0,VALID,78.7118,VALID,616.39,VALID,24.0115,VALID,103,VALID,0.905078,
2013-01-28, 10:05:04,VALID,919.897,VALID,0,VALID,77.8503,VALID,567.397,VALID,24.111,VALID,97,VALID,2.28398,
2013-01-28, 10:06:04,VALID,919.914,VALID,0,VALID,77.8198,VALID,499.816,VALID,24.0896,VALID,104,VALID,0.835156,
2013-01-28, 10:07:04,VALID,919.932,VALID,0,VALID,74.0844,VALID,433.203,VALID,24.1287,VALID,114,VALID,1.85664,
2013-01-28, 10:08:04,VALID,919.914,VALID,0,VALID,74.801,VALID,379.912,VALID,24.1873,VALID,103,VALID,0.290625,
2013-01-28, 10:09:04,VALID,919.94,VALID,0,VALID,73.5965,VALID,346.283,VALID,24.4392,VALID,103,VALID,0.0378906,
2013-01-28, 10:10:04,VALID,919.99,VALID,0,VALID,72.8875,VALID,351.655,VALID,24.7126,VALID,103,VALID,0.0929687,
2013-01-28, 10:11:04,VALID,919.962,VALID,0,VALID,72.7731,VALID,376.904,VALID,24.9683,VALID,103,VALID,0,
2013-01-28, 10:12:04,VALID,919.942,VALID,0,VALID,71.7897,VALID,384.532,VALID,25.2417,VALID,130,VALID,0.626953,
2013-01-28, 10:13:04,VALID,919.968,VALID,0,VALID,73.1772,VALID,375.614,VALID,25.4351,VALID,164,VALID,1.27695,
2013-01-28, 10:14:04,VALID,919.964,VALID,0,VALID,73.6651,VALID,338.547,VALID,25.6304,VALID,84,VALID,0.9375,
2013-01-28, 10:15:04,VALID,919.933,VALID,0,VALID,72.4987,VALID,323.613,VALID,25.6499,VALID,113,VALID,1.31875,
2013-01-28, 10:16:04,VALID,919.886,VALID,0,VALID,72.148,VALID,330.596,VALID,25.7866,VALID,106,VALID,1.26133,
2013-01-28, 10:17:04,VALID,919.891,VALID,0,VALID,69.4341,VALID,319.423,VALID,25.728,VALID,104,VALID,0.377734,
2013-01-28, 10:18:04,VALID,919.91,VALID,0,VALID,69.8762,VALID,307.282,VALID,25.7691,VALID,141,VALID,1.28711,
2013-01-28, 10:19:04,VALID,919.887,VALID,0,VALID,68.3134,VALID,291.273,VALID,25.5737,VALID,139,VALID,1.93594,
2013-01-28, 10:20:04,VALID,919.868,VALID,0,VALID,68.1686,VALID,272.578,VALID,25.4761,VALID,167,VALID,1.64531,
2013-01-28, 10:21:04,VALID,919.843,VALID,0,VALID,70.387,VALID,278.487,VALID,25.4351,VALID,148,VALID,1.20391,
2013-01-28, 10:22:04,VALID,919.862,VALID,0,VALID,68.0237,VALID,278.058,VALID,25.6128,VALID,187,VALID,1.31758,
2013-01-28, 10:23:04,VALID,919.856,VALID,0,VALID,69.739,VALID,299.224,VALID,25.7476,VALID,87,VALID,1.51094,
2013-01-28, 10:24:04,VALID,919.867,VALID,0,VALID,70.9435,VALID,351.655,VALID,25.7886,VALID,31,VALID,1.26406,
2013-01-28, 10:25:04,VALID,919.874,VALID,0,VALID,71.378,VALID,410.21,VALID,25.9058,VALID,22,VALID,1.47539,
2013-01-28, 10:26:04,VALID,919.873,VALID,0,VALID,70.9511,VALID,505.94,VALID,26.1793,VALID,33,VALID,0.741406,
2013-01-28, 10:27:04,VALID,919.886,VALID,0,VALID,63.4421,VALID,628.316,VALID,26.316,VALID,97,VALID,1.62773,
2013-01-28, 10:28:04,VALID,919.834,VALID,0,VALID,68.1381,VALID,731.459,VALID,26.1597,VALID,56,VALID,1.4293,
2013-01-28, 10:29:04,VALID,919.87,VALID,0,VALID,69.3578,VALID,675.805,VALID,25.8452,VALID,87,VALID,2.65742,
2013-01-28, 10:30:04,VALID,919.845,VALID,0,VALID,68.1762,VALID,846.959,VALID,25.4937,VALID,81,VALID,1.23359,
2013-01-28, 10:31:04,VALID,919.837,VALID,0,VALID,70.9054,VALID,830.842,VALID,25.5327,VALID,61,VALID,1.25703,
2013-01-28, 10:32:04,VALID,919.826,VALID,0,VALID,68.9767,VALID,898.853,VALID,25.6694,VALID,113,VALID,0.450391,
2013-01-28, 10:33:04,VALID,919.875,VALID,0,VALID,69.1901,VALID,913.68,VALID,25.7691,VALID,163,VALID,0.915625,
2013-01-28, 10:34:04,VALID,919.874,VALID,0,VALID,65.2259,VALID,324.365,VALID,25.8843,VALID,117,VALID,1.63242,
2013-01-28, 10:35:04,VALID,919.883,VALID,0,VALID,66.217,VALID,448.03,VALID,25.6499,VALID,122,VALID,0.632813,
2013-01-28, 10:36:04,VALID,919.83,VALID,0,VALID,66.2627,VALID,586.629,VALID,25.689,VALID,169,VALID,0.780859,
2013-01-28, 10:37:04,VALID,919.828,VALID,0,VALID,67.6121,VALID,288.479,VALID,25.5327,VALID,140,VALID,0.903125,
2013-01-28, 10:38:04,VALID,919.858,VALID,0,VALID,66.0721,VALID,582.331,VALID,25.5718,VALID,131,VALID,0.894922,
2013-01-28, 10:39:04,VALID,919.807,VALID,0,VALID,64.3721,VALID,511.205,VALID,25.5523,VALID,133,VALID,0.433984,
2013-01-28, 10:40:04,VALID,919.806,VALID,0,VALID,64.2502,VALID,306.422,VALID,25.5718,VALID,246,VALID,0.599219,
2013-01-28, 10:41:04,VALID,919.782,VALID,0,VALID,64.1892,VALID,271.611,VALID,25.5913,VALID,246,VALID,0.0492188,
2013-01-28, 10:42:04,VALID,919.762,VALID,0,VALID,64.0519,VALID,233.255,VALID,25.6304,VALID,246,VALID,0.407422,
2013-01-28, 10:43:04,VALID,919.734,VALID,0,VALID,66.4914,VALID,210.692,VALID,25.6519,VALID,246,VALID,0.583984,
2013-01-28, 10:44:04,VALID,919.749,VALID,0,VALID,66.3466,VALID,201.237,VALID,25.6499,VALID,246,VALID,0.589844,
2013-01-28, 10:45:04,VALID,919.716,VALID,0,VALID,70.1812,VALID,201.452,VALID,25.6694,VALID,246,VALID,0.469531,
2013-01-28, 10:46:04,VALID,919.746,VALID,0,VALID,67.7112,VALID,201.989,VALID,25.6304,VALID,246,VALID,0.907422,
2013-01-28, 10:47:04,VALID,919.735,VALID,0,VALID,69.678,VALID,175.881,VALID,25.4546,VALID,246,VALID,0.527344,
2013-01-28, 10:48:04,VALID,919.728,VALID,0,VALID,70.7529,VALID,151.599,VALID,25.2007,VALID,246,VALID,1.10664,
2013-01-28, 10:49:04,VALID,919.732,VALID,0,VALID,72.4834,VALID,142.574,VALID,24.9683,VALID,246,VALID,0.446484,
2013-01-28, 10:50:04,VALID,919.754,VALID,0,VALID,72.9332,VALID,132.905,VALID,24.8707,VALID,246,VALID,0.610547,
2013-01-28, 10:51:04,VALID,919.733,VALID,0,VALID,74.031,VALID,122.161,VALID,24.8102,VALID,246,VALID,0.626172,
2013-01-28, 10:52:04,VALID,919.764,VALID,0,VALID,73.4059,VALID,116.574,VALID,24.7516,VALID,246,VALID,0.741797,
2013-01-28, 10:53:04,VALID,919.757,VALID,0,VALID,73.7184,VALID,116.681,VALID,24.6149,VALID,246,VALID,0.670703,
2013-01-28, 10:54:04,VALID,919.741,VALID,0,VALID,74.4655,VALID,111.202,VALID,24.5778,VALID,246,VALID,0.471484,
2013-01-28, 10:55:04,VALID,919.721,VALID,0,VALID,73.0781,VALID,100.995,VALID,24.4587,VALID,246,VALID,0.810547,
2013-01-28, 10:56:04,VALID,919.731,VALID,0,VALID,71.1646,VALID,99.9203,VALID,24.3825,VALID,246,VALID,0.826563,
2013-01-28, 10:57:04,VALID,919.716,VALID,0,VALID,71.9193,VALID,103.036,VALID,24.3026,VALID,246,VALID,0.285547,
2013-01-28, 10:58:04,VALID,919.746,VALID,0,VALID,71.3857,VALID,105.507,VALID,24.3435,VALID,246,VALID,0.200781,
2013-01-28, 10:59:04,VALID,919.726,VALID,0,VALID,74.2826,VALID,109.483,VALID,24.402,VALID,246,VALID,0.121875,
2013-01-28, 11:00:04,VALID,919.73,VALID,0,VALID,73.6803,VALID,108.623,VALID,24.4411,VALID,246,VALID,0.470703,
2013-01-28, 11:01:04,VALID,919.718,VALID,0,VALID,75.327,VALID,105.722,VALID,24.4216,VALID,245,VALID,0.523047,
2013-01-28, 11:02:04,VALID,919.669,VALID,0,VALID,75.8225,VALID,116.789,VALID,24.4606,VALID,183,VALID,0.616406,
2013-01-28, 11:03:04,VALID,919.688,VALID,0,VALID,75.8911,VALID,130.326,VALID,24.402,VALID,150,VALID,1.16836,
2013-01-28, 11:04:04,VALID,919.675,VALID,0,VALID,74.8696,VALID,153.641,VALID,24.2849,VALID,158,VALID,1.15,
2013-01-28, 11:05:04,VALID,919.649,VALID,0,VALID,73.848,VALID,190.278,VALID,24.2245,VALID,158,VALID,0.940625,
2013-01-28, 11:06:04,VALID,919.621,VALID,0,VALID,74.8391,VALID,227.345,VALID,24.2458,VALID,158,VALID,0.612109,
2013-01-28, 11:07:04,VALID,919.634,VALID,0,VALID,76.8212,VALID,253.131,VALID,24.3044,VALID,158,VALID,0.622266,
2013-01-28, 11:08:04,VALID,919.642,VALID,0,VALID,76.9203,VALID,947.738,VALID,24.4197,VALID,157,VALID,0.819922,
2013-01-28, 11:09:04,VALID,919.598,VALID,0,VALID,71.9117,VALID,942.796,VALID,24.5778,VALID,136,VALID,1.16133,
2013-01-28, 11:10:04,VALID,919.606,VALID,0,VALID,73.4287,VALID,940.54,VALID,24.8511,VALID,141,VALID,0.522266,
2013-01-28, 11:11:04,VALID,919.594,VALID,0,VALID,69.7848,VALID,943.226,VALID,25.2203,VALID,129,VALID,1.80586,
2013-01-28, 11:12:04,VALID,919.583,VALID,0,VALID,68.2677,VALID,946.771,VALID,25.3765,VALID,58,VALID,0.912109,
2013-01-28, 11:13:04,VALID,919.559,VALID,0,VALID,71.6144,VALID,957.838,VALID,25.5523,VALID,11,VALID,1,
2013-01-28, 11:14:04,VALID,919.564,VALID,0,VALID,68.6031,VALID,976.533,VALID,25.7671,VALID,58,VALID,1.70352,
2013-01-28, 11:15:04,VALID,919.568,VALID,0,VALID,69.0453,VALID,1003.93,VALID,26.021,VALID,57,VALID,1.01953,
2013-01-28, 11:16:04,VALID,919.538,VALID,0,VALID,65.5538,VALID,1034.55,VALID,26.1382,VALID,100,VALID,0.591016,
2013-01-28, 11:17:04,VALID,919.553,VALID,0,VALID,63.4192,VALID,1059.48,VALID,26.2183,VALID,150,VALID,1.04961,
2013-01-28, 11:18:04,VALID,919.528,VALID,0,VALID,63.4268,VALID,1095.68,VALID,26.277,VALID,141,VALID,0.860547,
2013-01-28, 11:19:04,VALID,919.502,VALID,0,VALID,61.6353,VALID,880.588,VALID,26.3336,VALID,129,VALID,0.811328,
2013-01-28, 11:20:04,VALID,919.508,VALID,0,VALID,62.4282,VALID,909.06,VALID,26.4117,VALID,129,VALID,0.258203,
2013-01-28, 11:21:04,VALID,919.515,VALID,0,VALID,61.4447,VALID,396.995,VALID,26.6852,VALID,129,VALID,0.272266,
2013-01-28, 11:22:04,VALID,919.448,VALID,0,VALID,60.3775,VALID,296.86,VALID,26.8806,VALID,154,VALID,0.525781,
2013-01-28, 11:23:04,VALID,919.431,VALID,0,VALID,58.2963,VALID,294.496,VALID,26.861,VALID,234,VALID,0.778906,
2013-01-28, 11:24:04,VALID,919.465,VALID,0,VALID,59.3559,VALID,315.77,VALID,26.7068,VALID,197,VALID,0.805469,
2013-01-28, 11:25:04,VALID,919.42,VALID,0,VALID,59.9429,VALID,335.646,VALID,26.5094,VALID,203,VALID,0.908984,